Home   Weather   Welland   Past weeks

Flag for Canada Past Weather in Welland, Ontario, Canada — Yesterday and Last 2 Weeks

Now
66 °F

Mild.


Feels Like: 66 °F
Forecast: 59 / 78 °F
Wind: 10 mph from South

Location: Port Colborne Airport

Current Time: Jul 26, 2017 at 4:57:33 am

Latest Report: Jul 26, 2017 at 4:00 am


Visibility: N/A

Pressure: 30.21 "Hg

Humidity: 65%

Dew Point: 54 °F

Location of WellandLocation

Past Weather in Welland — Graph

°F

Welland Temperature Yesterday

Maximum temperature yesterday: 68 °F (at 7:00 pm)
Minimum temperature yesterday: 61 °F (at 2:00 am)
Average temperature yesterday: 64 °F

High & Low Weather Summary for the Past Weeks

 TemperatureHumidityPressure
High77 °F (Jul 19, 11:00 pm)100% (Jul 21, 6:00 am)30.24 "Hg (Jul 21, 6:00 am)
Low61 °F (Jul 25, 2:00 am)55% (Jul 22, 12:00 am)29.70 "Hg (Jul 24, 3:00 am)
Average71 °F80%29.96 "Hg
* Reported Jul 11 3:00 am — Jul 26 3:00 am, Welland. Weather by CustomWeather, © 2017

Note: Actual official high and low records may vary slightly from our data, if they occured in-between our weather recording intervals... More about our weather records

Advertising

Welland Weather History for the Previous 24 Hours

Scroll right to see more
 ConditionsComfort  
Time TempWeatherWind HumidityBarometerVisibility
3:00 am
Wed, Jul 26
66 °FMild.13 mph65%30.21 "HgN/A
2:00 am67 °FMild.10 mph67%30.22 "HgN/A
1:00 am67 °FMild.10 mph65%30.22 "HgN/A
12:00 am67 °FMild.8 mph66%30.23 "HgN/A
11:00 pm
Tue, Jul 25
65 °FMild.5 mph69%30.24 "HgN/A
10:00 pm67 °FMild.5 mph64%30.24 "HgN/A
9:00 pm68 °FMild.7 mph61%30.23 "HgN/A
8:00 pm68 °FMild.6 mph63%30.23 "HgN/A
7:00 pm68 °FMild.7 mph59%30.23 "HgN/A
6:00 pm68 °FMild.6 mph57%30.23 "HgN/A
5:00 pm68 °FMild.7 mph59%30.23 "HgN/A
4:00 pm67 °FMild.12 mph59%30.22 "HgN/A
3:00 pm66 °FMild.13 mph61%30.22 "HgN/A
2:00 pm65 °FMild.12 mph63%30.22 "HgN/A
1:00 pm65 °FMild.10 mph63%30.21 "HgN/A
12:00 pm64 °FMild.14 mph62%30.20 "HgN/A
11:00 am63 °FMild.15 mph67%30.19 "HgN/A
10:00 am63 °FMild.14 mph66%30.18 "HgN/A
9:00 am63 °FMild.12 mph69%30.17 "HgN/A
8:00 am62 °FCool.7 mph80%30.14 "HgN/A
7:00 am62 °FCool.7 mph81%30.12 "HgN/A
6:00 am62 °FCool.8 mph83%30.09 "HgN/A
5:00 am62 °FCool.9 mph86%30.08 "HgN/A
4:00 am62 °FCool.8 mph87%30.06 "HgN/A
Weather by CustomWeather, © 2017

See weather overviewHow to use our weather pages